FW9167 Weather Reports


Display with metric or nautical units.
time (UTC)temp
F
wind
direction
speed
MPH
gust
MPH
rain 1hr
in
rain 24hr
in
rain mn
in
humidity
%
barometer
mb
20260905164603 55 114 0.0 2.0 0.00 0.00 0.00 69 1018.7
20260905163102 54 118 0.0 2.0 0.00 0.00 0.00 72 1018.6
20260905161602 53 34 0.0 3.0 0.00 0.00 0.00 73 1018.6
20260905153102 52 132 2.0 3.0 0.00 0.00 0.00 75 1018.8
20260905151604 52 213 0.0 1.0 0.00 0.00 0.00 75 1018.9
20260905144602 49 145 0.0 1.0 0.00 0.00 0.00 79 1019.0
20260905134602 41 1 0.0 1.0 0.00 0.00 0.00 86 1018.6
20260905133101 42 326 1.0 3.0 0.00 0.00 0.00 86 1018.6
20260905131603 41 19 0.0 1.0 0.00 0.00 0.00 87 1018.5
20260905124602 41 329 0.0 2.0 0.00 0.00 0.00 89 1018.5
20260905123102 41 354 0.0 2.0 0.00 0.00 0.00 87 1018.4
20260905121602 41 338 0.0 1.0 0.00 0.00 0.00 89 1018.5
20260905114602 39 338 0.0 2.0 0.00 0.00 0.00 90 1018.2
20260905111605 41 274 0.0 0.0 0.00 0.00 0.00 87 1018.0
20260905104601 42 309 0.0 1.0 0.00 0.00 0.00 85 1018.0
20260905103101 44 278 0.0 2.0 0.00 0.00 0.00 83 1017.8
20260905101605 45 319 1.0 3.0 0.00 0.00 0.00 82 1017.6
20260905100101 43 319 1.0 5.0 0.00 0.00 0.00 86 1017.6
20260905094602 43 328 1.0 2.0 0.00 0.00 0.00 85 1017.5
20260905093102 42 319 1.0 2.0 0.00 0.00 0.00 88 1017.4
20260905091602 42 6 1.0 1.0 0.00 0.00 0.00 88 1017.4
20260905084601 42 316 0.0 1.0 0.00 0.00 0.00 86 1017.3
20260905083101 43 316 0.0 0.0 0.00 0.00 0.00 84 1017.2
20260905081605 44 281 1.0 2.0 0.00 0.00 0.00 85 1017.2
20260905074602 44 24 1.0 1.0 0.00 0.00 0.00 84 1017.0
20260905073103 46 12 0.0 1.0 0.00 0.00 0.00 81 1016.8
20260905071602 47 221 0.0 1.0 0.00 0.00 0.00 79 1016.7
20260905064602 49 322 0.0 2.0 0.00 0.00 0.00 74 1016.4
20260905061602 49 308 1.0 7.0 0.00 0.00 0.00 77 1016.4
20260905054601 48 282 1.0 2.0 0.00 0.00 0.00 78 1016.2
20260905053102 49 42 1.0 3.0 0.00 0.00 0.00 76 1016.0
20260905051602 49 326 1.0 2.0 0.00 0.00 0.00 78 1015.9
20260905044602 51 20 0.0 3.0 0.00 0.00 0.00 74 1015.9
20260905043102 52 329 0.0 2.0 0.00 0.00 0.00 73 1016.0
20260905041602 52 321 1.0 5.0 0.00 0.00 0.00 74 1016.0
20260905034602 52 1 3.0 4.0 0.00 0.00 0.00 74 1016.2
20260905033102 53 330 1.0 4.0 0.00 0.00 0.00 72 1016.4
20260905031602 53 318 0.0 6.0 0.00 0.00 0.00 72 1016.2
20260905030101 53 335 3.0 6.0 0.00 0.00 0.00 73 1016.1
20260905023101 53 308 1.0 3.0 0.00 0.00 0.00 73 1016.0
20260905021601 54 319 2.0 4.0 0.00 0.00 0.00 72 1016.0
20260905014602 56 274 0.0 2.0 0.00 0.00 0.00 70 1016.0
20260905013101 57 281 0.0 2.0 0.00 0.00 0.00 67 1015.9
20260905011601 60 259 1.0 2.0 0.00 0.00 0.00 63 1015.9
20260905004603 64 113 1.0 5.0 0.00 0.00 0.00 51 1015.7
20260905003102 65 133 1.0 3.0 0.00 0.00 0.00 49 1015.6
20260905001602 63 110 0.0 1.0 0.00 0.00 0.00 53 1015.6
20260904234602 62 117 0.0 2.0 0.00 0.00 0.00 52 1015.8
20260904233101 63 107 0.0 4.0 0.00 0.00 0.00 50 1015.8
20260904231601 63 114 0.0 4.0 0.00 0.00 0.00 52 1015.8
20260904224602 65 107 0.0 2.0 0.00 0.00 0.00 46 1015.8
20260904223102 65 136 0.0 2.0 0.00 0.00 0.00 43 1015.7
20260904221606 66 162 0.0 5.0 0.00 0.00 0.00 42 1015.8
20260904214602 67 215 0.0 5.0 0.00 0.00 0.00 42 1015.8
20260904213106 65 204 0.0 2.0 0.00 0.00 0.00 46 1015.7
20260904211606 63 346 0.0 5.0 0.00 0.00 0.00 44 1015.7
20260904204602 64 135 1.0 6.0 0.00 0.00 0.00 43 1015.4
20260904203106 64 295 2.0 5.0 0.00 0.00 0.00 46 1015.5
20260904201602 64 138 2.0 5.0 0.00 0.00 0.00 46 1015.6
20260904194603 59 300 2.0 4.0 0.00 0.00 0.00 57 1015.8
20260904193101 59 25 0.0 4.0 0.00 0.00 0.00 57 1016.0
20260904191606 59 117 0.0 3.0 0.00 0.00 0.00 62 1016.4
20260904190104 58 232 0.0 3.0 0.00 0.00 0.00 62 1016.5
20260904184602 59 200 1.0 4.0 0.00 0.00 0.00 60 1016.5
20260904183102 59 119 0.0 7.0 0.00 0.00 0.00 65 1016.7
20260904181603 58 235 3.0 5.0 0.00 0.00 0.00 66 1016.7
20260904174602 56 156 0.0 3.0 0.00 0.00 0.00 70 1016.4
20260904173104 56 226 1.0 4.0 0.00 0.00 0.00 69 1016.4
20260904171603 55 145 1.0 2.0 0.00 0.00 0.00 73 1016.3
20260904170104 55 34 0.0 3.0 0.00 0.00 0.00 71 1016.3